星链-37158(STARLINK-37158)

导读

STARLINK-37158(NORAD编号68343)是SpaceX星链星座的一员,属于低轨互联网通信卫星。星链计划旨在近地轨道部署数万颗卫星,为全球提供高速宽带互联网服务。该卫星配备先进相控阵天线与激光星间链路,可实现高速数据传输,支持流媒体、在线游戏等应用。采用氩气离子推进系统,具备轨道机动与脱轨能力,采用太阳能供电,保障可靠运行,助力星链实现全球覆盖的低延迟网络服务。

Basic Information
目录编号:
68343
目录名称:
STARLINK-37158
国际标识:
2026-059Y
轨道中心:
EARTH
卫星名称:
星链-37158
卫星全名:
星链-37158(STARLINK-37158)
卫星状态:
在轨 (已飞行166 天)
发射日期:
2026-03-22 UTC
国别 :
美国 (US)
星等 :
--
Orbit Information
数据来源 国际轨道数据 AOE轨道数据
星历时间 2026-09-03T16:39:33+0800
1天前
查看轨道信息
2026-09-03T23:00:00+0800
22小时前
查看轨道信息
半长轴 6840.822km 6840.889km
偏心率 0.0000748 0.0001563
轨道倾角 53.158° 53.155°
近地点辐角 65.941° 62.878°
升交点赤经 236.188° 234.958°
平近点角 294.167° 317.402°
近地点 462.173km 461.682km
远地点 463.197km 463.822km
周期 93.847分钟 93.849分钟
每日圈数 15.344064 15.343836
Detailed Information
固有亮度:
5
最大亮度:
2.5
卫星平台:
Starlink V1.0
覆盖范围:
全球
运营商:
太空探索技术公司
运营商所在国:
美国
制造商(研发单位):
太空探索技术公司
制造商所在国:
美国
使用方式:
暂无
Satellite Introduction
Starlink 计划是 SpaceX 推出的全球卫星互联网项目,通过发射低轨道卫星,为全球尤其是偏远地区提供高速、低延迟的互联网服务。自 2019 年起,Starlink 已部署数千颗卫星,旨在缩小全球数字鸿沟,推动互联网普及。该项目还为军事、航空等行业提供通信支持,带来广泛经济效益。
2D Orbit Map
3D Orbit Map
Orbit Altitude Analysis Chart
Orbit Inclination Analysis Chart
Orbit Comprehensive Analysis Chart
View Comprehensive Chart
Conjunction Data List
Event ID Objects TCA Miss Dist (km) Collision Risk Probability Collision Risk Index (CRI) Action
CDM_260906-093706-073706-834321
2026-09-06T
09:37:53+0000
0.837 km
远距离
3.036806E-5 中风险 0.65
CDM_260906-080406-073706-834321
2026-09-06T
08:04:06+0000
2.159 km
极远距离
1.553596E-6 低风险 0.39
CDM_260905-194405-199006-834321
2026-09-05T
19:44:56+0000
2.623 km
极远距离
9.491415E-7 极低风险 0.35
CDM_260905-071205-420306-834321
2026-09-05T
07:12:24+0000
2.491 km
极远距离
7.59811E-7 极低风险 0.33